{"data":{"norad_id":58836,"intl_designator":"2024-017L","name":"STARLINK-31251","alt_names":[],"object_type":"PAYLOAD","status":"ACTIVE","operator":null,"country":"US","launch_date":"2024-01-24","launch_site_code":"AFWTR","launch_vehicle":null,"mission":null,"orbit_class":"UNKNOWN","rcs_meters":null,"size_class":null,"mass_kg":null,"dimensions":null,"purposes":["comms"],"wikipedia_slug":null,"has_3d_model":false,"image_url":null,"decayed_at":null,"tle_current":{"epoch":"2026-09-20T12:40:46.136928Z","epoch_age_seconds":150143,"freshness":"FRESH","line1":"1 58836U 24017L   26263.52831177  .00010001  00000+0  30698-3 0  9997","line2":"2 58836  53.1621  17.4185 0001380  78.0556 282.0602 15.34375708150020","mean_motion":15.34375708,"eccentricity":0.000138,"inclination_deg":53.1621,"raan_deg":17.4185,"arg_perigee_deg":78.0556,"mean_anomaly_deg":282.0602,"bstar":0.00030698,"rev_number":15002,"period_min":93.849243864593,"perigee_km":461.83139618596,"apogee_km":463.71948801998,"semimajor_km":6840.912442103,"source":"CELESTRAK","updated_at":"2026-09-21T09:00:33.984619Z"}}}